| time (UTC) | temp F | wind direction | speed MPH | gust MPH | rain 1hr in | rain 24hr in | rain mn in | humidity % | barometer mb |
| 20260902221600 | 84 | 0.0 | 0.0 | 0.00 | 0.07 | 0.07 | 80 | 1010.7 | |
| 20260902220520 | 85 | 0.0 | 0.0 | 0.00 | 0.07 | 0.07 | 80 | 1010.9 | |
| 20260902215520 | 85 | 0.0 | 0.0 | 0.00 | 0.07 | 0.07 | 79 | 1010.9 | |
| 20260902214520 | 85 | 0.0 | 0.0 | 0.00 | 0.07 | 0.07 | 79 | 1011.1 | |
| 20260902213520 | 86 | 0.0 | 0.0 | 0.00 | 0.07 | 0.07 | 78 | 1011.3 | |
| 20260902212520 | 86 | 0.0 | 0.0 | 0.00 | 0.07 | 0.07 | 77 | 1011.2 | |
| 20260902211540 | 86 | 0.0 | 0.0 | 0.00 | 0.07 | 0.07 | 76 | 1011.4 | |
| 20260902210521 | 86 | 0.0 | 0.0 | 0.00 | 0.07 | 0.07 | 75 | 1011.4 | |
| 20260902205520 | 86 | 0.0 | 0.0 | 0.00 | 0.07 | 0.07 | 75 | 1011.9 | |
| 20260902204520 | 86 | 0.0 | 0.0 | 0.00 | 0.07 | 0.07 | 74 | 1012.4 | |
| 20260902203540 | 87 | 0.0 | 0.0 | 0.00 | 0.07 | 0.07 | 74 | 1012.5 | |
| 20260902202520 | 86 | 0.0 | 0.0 | 0.00 | 0.07 | 0.07 | 73 | 1012.6 | |
| 20260902201519 | 87 | 0.0 | 4.0 | 0.00 | 0.07 | 0.07 | 74 | 1012.8 | |
| 20260902200520 | 87 | 0.0 | 0.0 | 0.00 | 0.07 | 0.07 | 73 | 1012.8 | |
| 20260902195519 | 87 | 0.0 | 4.0 | 0.00 | 0.07 | 0.07 | 73 | 1013.1 | |
| 20260902194519 | 87 | 0.0 | 3.0 | 0.00 | 0.07 | 0.07 | 74 | 1013.0 | |
| 20260902193520 | 87 | 225 | 1.0 | 4.0 | 0.00 | 0.07 | 0.07 | 75 | 1012.9 |
| 20260902192519 | 87 | 0.0 | 1.0 | 0.00 | 0.07 | 0.07 | 75 | 1012.8 | |
| 20260902191520 | 86 | 0.0 | 0.0 | 0.00 | 0.07 | 0.07 | 77 | 1012.7 | |
| 20260902190520 | 86 | 0.0 | 0.0 | 0.00 | 0.07 | 0.07 | 75 | 1012.6 | |
| 20260902185520 | 87 | 0.0 | 0.0 | 0.00 | 0.07 | 0.07 | 74 | 1012.5 | |
| 20260902184520 | 87 | 0.0 | 1.0 | 0.00 | 0.07 | 0.07 | 74 | 1012.5 | |
| 20260902183520 | 87 | 0.0 | 0.0 | 0.00 | 0.07 | 0.07 | 73 | 1012.5 | |
| 20260902182520 | 88 | 0.0 | 0.0 | 0.00 | 0.07 | 0.07 | 72 | 1012.7 | |
| 20260902181520 | 88 | 0.0 | 0.0 | 0.00 | 0.07 | 0.07 | 71 | 1012.9 | |
| 20260902180520 | 88 | 0.0 | 0.0 | 0.00 | 0.07 | 0.07 | 69 | 1013.1 | |
| 20260902175520 | 89 | 0.0 | 2.0 | 0.00 | 0.07 | 0.07 | 69 | 1013.4 | |
| 20260902174540 | 89 | 158 | 1.0 | 5.0 | 0.00 | 0.07 | 0.07 | 66 | 1013.7 |
| 20260902173520 | 88 | 0.0 | 1.0 | 0.00 | 0.07 | 0.07 | 71 | 1013.8 | |
| 20260902172519 | 88 | 180 | 1.0 | 6.0 | 0.00 | 0.07 | 0.07 | 71 | 1013.7 |
| 20260902171519 | 87 | 0.0 | 2.0 | 0.00 | 0.07 | 0.07 | 75 | 1013.8 | |
| 20260902170520 | 86 | 0.0 | 2.0 | 0.00 | 0.07 | 0.07 | 73 | 1013.8 | |
| 20260902165600 | 85 | 0.0 | 3.0 | 0.00 | 0.07 | 0.07 | 79 | 1013.8 | |
| 20260902164519 | 84 | 0.0 | 4.0 | 0.00 | 0.07 | 0.07 | 81 | 1013.9 | |
| 20260902163520 | 83 | 0.0 | 2.0 | 0.00 | 0.07 | 0.07 | 87 | 1013.9 | |
| 20260902162527 | 81 | 0.0 | 1.0 | 0.00 | 0.07 | 0.07 | 87 | 1013.9 | |
| 20260902161520 | 80 | 0.0 | 1.0 | 0.00 | 0.07 | 0.07 | 91 | 1014.1 | |
| 20260902160520 | 78 | 0.0 | 1.0 | 0.00 | 0.07 | 0.07 | 94 | 1014.1 | |
| 20260902155519 | 77 | 0.0 | 3.0 | 0.00 | 0.07 | 0.07 | 96 | 1014.0 | |
| 20260902154519 | 76 | 0.0 | 0.0 | 0.00 | 0.07 | 0.07 | 97 | 1014.3 | |
| 20260902153520 | 75 | 45 | 1.0 | 4.0 | 0.00 | 0.07 | 0.07 | 97 | 1014.5 |
| 20260902152519 | 75 | 0.0 | 0.0 | 0.00 | 0.07 | 0.07 | 97 | 1014.4 | |
| 20260902151540 | 74 | 0.0 | 0.0 | 0.00 | 0.07 | 0.07 | 97 | 1014.3 | |
| 20260902150519 | 74 | 0.0 | 1.0 | 0.00 | 0.07 | 0.07 | 97 | 1014.3 | |
| 20260902145519 | 74 | 0.0 | 1.0 | 0.00 | 0.07 | 0.07 | 97 | 1014.3 | |
| 20260902144520 | 74 | 0.0 | 0.0 | 0.00 | 0.07 | 0.07 | 97 | 1014.4 | |
| 20260902143519 | 73 | 0.0 | 0.0 | 0.00 | 0.07 | 0.07 | 97 | 1014.7 | |
| 20260902142520 | 72 | 0.0 | 0.0 | 0.00 | 0.07 | 0.07 | 97 | 1014.6 | |
| 20260902141540 | 72 | 0.0 | 0.0 | 0.00 | 0.07 | 0.07 | 97 | 1015.0 | |
| 20260902140519 | 72 | 0.0 | 0.0 | 0.02 | 0.07 | 0.07 | 96 | 1015.0 | |
| 20260902135519 | 71 | 0.0 | 0.0 | 0.04 | 0.07 | 0.07 | 97 | 1015.1 | |
| 20260902134519 | 71 | 0.0 | 0.0 | 0.05 | 0.07 | 0.07 | 96 | 1015.6 | |
| 20260902133519 | 70 | 0.0 | 0.0 | 0.06 | 0.07 | 0.07 | 96 | 1015.4 | |
| 20260902132520 | 70 | 0.0 | 0.0 | 0.07 | 0.07 | 0.07 | 96 | 1015.3 | |
| 20260902131519 | 70 | 0.0 | 0.0 | 0.07 | 0.07 | 0.07 | 96 | 1015.6 | |
| 20260902130519 | 70 | 0.0 | 0.0 | 0.05 | 0.05 | 0.05 | 96 | 1015.9 | |
| 20260902125519 | 69 | 0.0 | 0.0 | 0.03 | 0.03 | 0.03 | 95 | 1015.7 | |
| 20260902124519 | 69 | 0.0 | 0.0 | 0.02 | 0.02 | 0.02 | 95 | 1015.3 | |
| 20260902123519 | 69 | 0.0 | 0.0 | 0.01 | 0.01 | 0.01 | 95 | 1014.5 | |
| 20260902122600 | 69 | 0.0 | 0.0 | 0.00 | 0.00 | 0.00 | 95 | 1014.8 | |
| 20260902121519 | 69 | 0.0 | 0.0 | 0.00 | 0.00 | 0.00 | 95 | 1014.9 | |
| 20260902120519 | 69 | 0.0 | 0.0 | 0.00 | 0.00 | 0.00 | 95 | 1014.0 | |
| 20260902115540 | 68 | 0.0 | 0.0 | 0.00 | 0.00 | 0.00 | 95 | 1014.0 | |
| 20260902114519 | 68 | 0.0 | 0.0 | 0.00 | 0.00 | 0.00 | 95 | 1014.2 | |
| 20260902113519 | 68 | 0.0 | 0.0 | 0.00 | 0.00 | 0.00 | 95 | 1013.5 | |
| 20260902112519 | 68 | 0.0 | 0.0 | 0.00 | 0.00 | 0.00 | 94 | 1013.0 | |
| 20260902111519 | 68 | 0.0 | 0.0 | 0.00 | 0.00 | 0.00 | 94 | 1013.3 | |
| 20260902110519 | 68 | 0.0 | 0.0 | 0.00 | 0.00 | 0.00 | 94 | 1013.3 | |
| 20260902105539 | 68 | 0.0 | 0.0 | 0.00 | 0.00 | 0.00 | 94 | 1013.2 | |
| 20260902104519 | 68 | 0.0 | 0.0 | 0.00 | 0.00 | 0.00 | 94 | 1013.2 | |
| 20260902103519 | 68 | 0.0 | 0.0 | 0.00 | 0.00 | 0.00 | 93 | 1013.4 | |
| 20260902102519 | 68 | 0.0 | 0.0 | 0.00 | 0.00 | 0.00 | 93 | 1013.0 | |
| 20260902101519 | 68 | 0.0 | 0.0 | 0.00 | 0.00 | 0.00 | 93 | 1013.1 | |
| 20260902100520 | 68 | 0.0 | 0.0 | 0.00 | 0.00 | 0.00 | 93 | 1013.2 | |
| 20260902095519 | 68 | 0.0 | 0.0 | 0.00 | 0.00 | 0.00 | 93 | 1013.6 | |
| 20260902094519 | 68 | 0.0 | 0.0 | 0.00 | 0.00 | 0.00 | 93 | 1013.6 | |
| 20260902093519 | 68 | 0.0 | 0.0 | 0.00 | 0.00 | 0.00 | 93 | 1014.0 | |
| 20260902092520 | 68 | 0.0 | 0.0 | 0.00 | 0.01 | 0.00 | 93 | 1014.1 | |
| 20260902091519 | 68 | 0.0 | 0.0 | 0.00 | 0.01 | 0.00 | 93 | 1014.0 | |
| 20260902090519 | 68 | 0.0 | 0.0 | 0.00 | 0.01 | 0.00 | 92 | 1013.9 | |
| 20260902085519 | 68 | 0.0 | 0.0 | 0.00 | 0.01 | 0.00 | 92 | 1014.0 | |
| 20260902084539 | 68 | 0.0 | 0.0 | 0.00 | 0.02 | 0.00 | 92 | 1014.2 | |
| 20260902083519 | 68 | 0.0 | 0.0 | 0.00 | 0.02 | 0.00 | 92 | 1014.3 | |
| 20260902082519 | 68 | 0.0 | 0.0 | 0.00 | 0.02 | 0.00 | 92 | 1014.5 | |
| 20260902081519 | 68 | 0.0 | 0.0 | 0.00 | 0.02 | 0.00 | 92 | 1014.6 | |
| 20260902080519 | 68 | 0.0 | 0.0 | 0.00 | 0.02 | 0.00 | 92 | 1014.5 | |
| 20260902075519 | 68 | 0.0 | 0.0 | 0.00 | 0.02 | 0.00 | 92 | 1014.5 | |
| 20260902074519 | 68 | 0.0 | 0.0 | 0.00 | 0.05 | 0.00 | 92 | 1014.6 | |
| 20260902073539 | 68 | 0.0 | 0.0 | 0.00 | 0.05 | 0.00 | 92 | 1014.6 | |
| 20260902072519 | 68 | 0.0 | 0.0 | 0.00 | 0.05 | 0.00 | 92 | 1014.7 | |
| 20260902071519 | 68 | 0.0 | 0.0 | 0.00 | 0.05 | 0.00 | 92 | 1014.7 | |
| 20260902070520 | 68 | 0.0 | 0.0 | 0.00 | 0.05 | 0.00 | 92 | 1014.7 | |
| 20260902065519 | 69 | 0.0 | 0.0 | 0.00 | 0.05 | 0.00 | 91 | 1014.7 | |
| 20260902064519 | 69 | 0.0 | 0.0 | 0.00 | 0.05 | 0.00 | 91 | 1014.5 | |
| 20260902063519 | 69 | 0.0 | 0.0 | 0.00 | 0.05 | 0.00 | 91 | 1014.4 | |
| 20260902062519 | 69 | 0.0 | 0.0 | 0.00 | 0.05 | 0.00 | 90 | 1014.6 | |
| 20260902061519 | 69 | 0.0 | 0.0 | 0.00 | 0.05 | 0.00 | 91 | 1014.8 | |
| 20260902060519 | 69 | 0.0 | 0.0 | 0.00 | 0.05 | 0.00 | 90 | 1014.8 | |
| 20260902055519 | 69 | 0.0 | 0.0 | 0.00 | 0.05 | 0.00 | 90 | 1014.8 | |
| 20260902054519 | 70 | 0.0 | 0.0 | 0.00 | 0.05 | 0.00 | 90 | 1014.8 | |
| 20260902053519 | 70 | 0.0 | 0.0 | 0.00 | 0.06 | 0.00 | 90 | 1014.9 | |
| 20260902052519 | 70 | 0.0 | 0.0 | 0.00 | 0.06 | 0.00 | 90 | 1014.9 | |
| 20260902051519 | 70 | 0.0 | 0.0 | 0.00 | 0.07 | 0.00 | 90 | 1014.7 | |
| 20260902050519 | 71 | 0.0 | 0.0 | 0.00 | 0.08 | 0.00 | 90 | 1014.8 | |
| 20260902045559 | 71 | 0.0 | 0.0 | 0.00 | 0.08 | 0.00 | 91 | 1014.9 | |
| 20260902044519 | 71 | 0.0 | 0.0 | 0.00 | 0.08 | 0.00 | 90 | 1014.8 | |
| 20260902043519 | 71 | 0.0 | 0.0 | 0.00 | 0.08 | 0.00 | 90 | 1014.9 | |
| 20260902042519 | 71 | 0.0 | 0.0 | 0.00 | 0.08 | 0.00 | 91 | 1014.7 | |
| 20260902041520 | 71 | 0.0 | 0.0 | 0.00 | 0.08 | 0.00 | 90 | 1014.8 | |
| 20260902040540 | 72 | 0.0 | 0.0 | 0.00 | 0.08 | 0.00 | 90 | 1014.8 | |
| 20260902035520 | 72 | 0.0 | 0.0 | 0.00 | 0.08 | 0.08 | 90 | 1014.8 | |
| 20260902034520 | 72 | 0.0 | 0.0 | 0.00 | 0.08 | 0.08 | 91 | 1014.8 | |
| 20260902033540 | 72 | 0.0 | 0.0 | 0.00 | 0.08 | 0.08 | 91 | 1014.8 | |
| 20260902032520 | 72 | 0.0 | 0.0 | 0.00 | 0.08 | 0.08 | 91 | 1014.7 | |
| 20260902031520 | 72 | 0.0 | 0.0 | 0.00 | 0.08 | 0.08 | 91 | 1014.7 | |
| 20260902030520 | 72 | 0.0 | 0.0 | 0.00 | 0.08 | 0.08 | 91 | 1014.8 | |
| 20260902025520 | 72 | 0.0 | 0.0 | 0.00 | 0.08 | 0.08 | 91 | 1014.8 | |
| 20260902024520 | 72 | 0.0 | 0.0 | 0.00 | 0.08 | 0.08 | 89 | 1014.8 | |
| 20260902023520 | 72 | 0.0 | 0.0 | 0.00 | 0.08 | 0.08 | 89 | 1014.9 | |
| 20260902022540 | 72 | 0.0 | 0.0 | 0.00 | 0.08 | 0.08 | 90 | 1014.7 | |
| 20260902021522 | 73 | 0.0 | 0.0 | 0.00 | 0.08 | 0.08 | 90 | 1014.8 | |
| 20260902020520 | 73 | 0.0 | 0.0 | 0.00 | 0.08 | 0.08 | 90 | 1014.9 | |
| 20260902015540 | 73 | 0.0 | 0.0 | 0.00 | 0.08 | 0.08 | 89 | 1014.9 | |
| 20260902014520 | 73 | 0.0 | 0.0 | 0.00 | 0.08 | 0.08 | 88 | 1014.9 | |
| 20260902013520 | 73 | 0.0 | 0.0 | 0.00 | 0.08 | 0.08 | 87 | 1014.9 | |
| 20260902012520 | 73 | 0.0 | 0.0 | 0.00 | 0.08 | 0.08 | 87 | 1014.8 | |
| 20260902011600 | 73 | 0.0 | 0.0 | 0.00 | 0.08 | 0.08 | 86 | 1014.8 | |
| 20260902010540 | 73 | 0.0 | 0.0 | 0.00 | 0.08 | 0.08 | 87 | 1014.7 | |
| 20260902005540 | 74 | 0.0 | 0.0 | 0.00 | 0.08 | 0.08 | 85 | 1014.5 | |
| 20260902004520 | 74 | 0.0 | 0.0 | 0.00 | 0.08 | 0.08 | 85 | 1014.2 | |
| 20260902003520 | 74 | 0.0 | 0.0 | 0.00 | 0.08 | 0.08 | 84 | 1014.1 | |
| 20260902002520 | 74 | 0.0 | 0.0 | 0.00 | 0.08 | 0.08 | 83 | 1013.9 | |
| 20260902001520 | 75 | 0.0 | 0.0 | 0.00 | 0.09 | 0.08 | 83 | 1013.6 | |
| 20260902000520 | 75 | 0.0 | 0.0 | 0.00 | 0.09 | 0.08 | 83 | 1013.5 | |
| 20260901235519 | 76 | 0.0 | 0.0 | 0.00 | 0.09 | 0.08 | 82 | 1013.5 | |
| 20260901234520 | 76 | 0.0 | 0.0 | 0.00 | 0.09 | 0.08 | 82 | 1013.6 | |
| 20260901233520 | 77 | 0.0 | 0.0 | 0.00 | 0.09 | 0.08 | 82 | 1013.7 | |
| 20260901232540 | 77 | 0.0 | 0.0 | 0.00 | 0.09 | 0.08 | 81 | 1013.6 | |
| 20260901231520 | 77 | 0.0 | 0.0 | 0.00 | 0.09 | 0.08 | 81 | 1013.7 | |
| 20260901230520 | 78 | 0.0 | 0.0 | 0.00 | 0.09 | 0.08 | 81 | 1013.8 | |
| 20260901225520 | 78 | 0.0 | 0.0 | 0.00 | 0.09 | 0.08 | 81 | 1013.8 | |
| 20260901224520 | 79 | 0.0 | 0.0 | 0.00 | 0.09 | 0.08 | 81 | 1013.8 | |
| 20260901223520 | 79 | 0.0 | 0.0 | 0.00 | 0.09 | 0.08 | 80 | 1013.8 | |
| 20260901222521 | 79 | 0.0 | 0.0 | 0.00 | 0.09 | 0.08 | 80 | 1013.8 |